Location: Baix
(44.7118°N, 4.7648°E)
Time: 01:05:13
(UTC+00:00)

Vanguard 3 - Pass Details

Date: 27 November 2020
Orbit: 508 x 3262 km, 33.3° (Epoch: 19 January)

Event Time Altitude Azimuth Distance (km) Brightness Sun altitude
Rises 23:26:40 0° 250° (WSW) 2,840 - -66.6°
Reaches altitude 10° 23:28:57 10° 235° (SW) 2,115 - -66.6°
Maximum altitude 23:32:53 25° 180° (S) 1,686 - -66.6°
Drops below altitude 10° 23:38:31 10° 129° (SE) 3,138 - -66.5°
Sets 23:42:47 0° 118° (ESE) 4,617 - -66.5°
